QPF
0.02 0.08 0.11 0.07 0.07 0.07 0.06 0.03 0.03 0.06 0.04 0.01 0.00 0.00 0.01 0.00 0.00 0.00 0.00 0.00 0.00 0.00 0.00 0.00 0.00 0.00 0.00 0.00 0.00 0.00 0.00 0.00 0.00 0.00 0.01 0.01 0.01 0.01 0.01 0.01 0.01 0.01 0.02 0.03
0.04 0.04 0.03 0.03 0.04 0.06 0.05 0.02 0.02 0.03 0.03 0.01 0.00 0.00 0.00 0.00 0.00 0.00 0.00 0.00 0.00 0.00 0.00 0.00 0.00 0.00 0.00 0.00 0.00 0.00 0.00 0.00 0.00 0.00 0.01 0.00 0.01 0.00 0.01 0.01 0.01 0.01 0.02 0.03
0.02 0.01 0.02 0.02 0.02 0.02 0.02 0.03 0.04 0.05 0.03 0.01 0.00 0.00 0.00 0.00 0.00 0.00 0.00 0.00 0.00 0.00 0.00 0.00 0.00 0.00 0.00 0.00 0.00 0.00 0.00 0.00 0.00 0.00 0.00 0.01 0.01 0.01 0.01 0.01 0.01 0.01 0.01 0.02
0.03 0.02 0.02 0.00 0.01 0.01 0.03 0.03 0.02 0.02 0.00 0.00 0.00 0.00 0.00 0.00 0.00 0.00 0.00 0.00 0.00 0.00 0.00 0.00 0.00 0.00 0.00 0.00 0.00 0.00 0.00 0.00 0.00 0.00 0.00 0.00 0.00 0.00 0.00 0.00 0.01 0.01 0.01 0.01
0.08 0.03 0.01 0.00 0.01 0.00 0.03 0.03 0.00 0.00 0.00 0.00 0.00 0.00 0.00 0.00 0.00 0.00 0.00 0.00 0.00 0.00 0.00 0.00 0.00 0.00 0.00 0.00 0.00 0.00 0.00 0.00 0.00 0.00 0.00 0.00 0.00 0.00 0.00 0.00 0.00 0.01 0.01 0.00
0.02 0.01 0.00 0.00 0.01 0.00 0.01 0.00 0.00 0.00 0.00 0.00 0.00 0.00 0.00 0.00 0.00 0.00 0.00 0.00 0.00 0.00 0.00 0.00 0.00 0.00 0.00 0.00 0.00 0.00 0.00 0.00 0.00 0.00 0.00 0.00 0.00 0.00 0.00 0.00 0.00 0.00 0.00 0.00
0.00 0.00 0.00 0.00 0.00 0.00 0.00 0.00 0.01 0.02 0.01 0.00 0.00 0.00 0.00 0.00 0.00 0.00 0.00 0.00 0.00 0.00 0.00 0.00 0.00 0.00 0.00 0.00 0.00 0.00 0.00 0.00 0.00 0.00 0.00 0.00 0.00 0.00 0.00 0.00 0.00 0.00 0.00 0.00
0.00 0.00 0.00 0.00 0.00 0.00 0.00 0.00 0.02 0.04 0.02 0.01 0.00 0.00 0.00 0.00 0.00 0.00 0.00 0.00 0.00 0.00 0.00 0.00 0.00 0.00 0.00 0.00 0.00 0.00 0.00 0.00 0.00 0.00 0.00 0.00 0.00 0.00 0.00 0.00 0.00 0.00 0.00 0.00
0.00 0.00 0.00 0.00 0.00 0.00 0.00 0.00 0.00 0.00 0.00 0.00 0.00 0.00 0.00 0.00 0.00 0.00 0.00 0.00 0.00 0.00 0.00 0.00 0.00 0.00 0.00 0.00 0.00 0.00 0.00 0.00 0.00 0.00 0.00 0.00 0.00 0.00 0.00 0.00 0.00 0.00 0.00 0.00
0.00 0.00 0.00 0.00 0.00 0.00 0.00 0.00 0.00 0.00 0.00 0.00 0.00 0.00 0.00 0.00 0.00 0.00 0.00 0.00 0.00 0.00 0.00 0.00 0.00 0.00 0.00 0.00 0.00 0.00 0.00 0.00 0.00 0.00 0.00 0.00 0.00 0.00 0.00 0.00 0.00 0.00 0.00 0.00
0.00 0.00 0.00 0.00 0.00 0.00 0.00 0.00 0.00 0.00 0.00 0.00 0.00 0.00 0.00 0.00 0.00 0.00 0.00 0.00 0.00 0.00 0.00 0.00 0.00 0.00 0.00 0.00 0.00 0.00 0.00 0.00 0.00 0.00 0.00 0.00 0.00 0.00 0.00 0.00 0.00 0.00 0.00 0.00
0.00 0.00 0.00 0.00 0.00 0.00 0.00 0.00 0.00 0.00 0.00 0.00 0.00 0.00 0.00 0.00 0.00 0.00 0.00 0.00 0.00 0.00 0.00 0.00 0.00 0.00 0.00 0.00 0.00 0.00 0.00 0.00 0.00 0.00 0.00 0.00 0.00 0.00 0.00 0.00 0.00 0.00 0.00 0.00
0.00 0.00 0.00 0.01 0.01 0.00 0.00 0.00 0.00 0.00 0.00 0.00 0.00 0.00 0.00 0.00 0.00 0.00 0.00 0.00 0.00 0.00 0.00 0.00 0.00 0.00 0.00 0.00 0.00 0.00 0.00 0.00 0.00 0.00 0.00 0.00 0.00 0.00 0.00 0.00 0.00 0.00 0.00 0.00
0.00 0.00 0.00 0.01 0.01 0.00 0.00 0.00 0.00 0.00 0.00 0.00 0.00 0.00 0.00 0.00 0.00 0.00 0.00 0.00 0.00 0.00 0.00 0.00 0.00 0.00 0.00 0.00 0.00 0.00 0.00 0.00 0.00 0.00 0.00 0.00 0.00 0.00 0.00 0.00 0.00 0.00 0.00 0.00
0.00 0.00 0.00 0.00 0.00 0.00 0.00 0.00 0.00 0.00 0.00 0.00 0.00 0.00 0.00 0.00 0.00 0.00 0.00 0.00 0.00 0.00 0.00 0.00 0.00 0.00 0.00 0.00 0.00 0.00 0.00 0.00 0.00 0.00 0.00 0.00 0.00 0.00 0.00 0.00 0.00 0.00 0.00 0.00
0.00 0.00 0.00 0.00 0.00 0.00 0.00 0.00 0.00 0.00 0.00 0.00 0.00 0.00 0.00 0.00 0.00 0.00 0.00 0.00 0.00 0.00 0.00 0.00 0.00 0.00 0.00 0.00 0.00 0.00 0.00 0.00 0.00 0.00 0.00 0.00 0.00 0.00 0.00 0.00 0.00 0.00 0.00 0.00
0.00 0.00 0.00 0.00 0.00 0.00 0.00 0.00 0.00 0.00 0.00 0.00 0.00 0.00 0.00 0.00 0.00 0.00 0.00 0.00 0.00 0.00 0.00 0.00 0.00 0.00 0.00 0.00 0.00 0.00 0.00 0.00 0.00 0.00 0.00 0.00 0.00 0.00 0.00 0.00 0.00 0.00 0.00 0.00
0.00 0.00 0.00 0.00 0.00 0.00 0.00 0.00 0.00 0.00 0.00 0.00 0.00 0.00 0.00 0.00 0.00 0.00 0.00 0.00 0.00 0.00 0.00 0.00 0.00 0.00 0.00 0.00 0.00 0.00 0.00 0.00 0.00 0.00 0.00 0.00 0.00 0.00 0.00 0.00 0.00 0.00 0.00 0.00
0.00 0.00 0.00 0.00 0.00 0.00 0.00 0.00 0.00 0.00 0.00 0.00 0.00 0.00 0.00 0.00 0.00 0.00 0.00 0.00 0.00 0.00 0.00 0.00 0.00 0.00 0.00 0.00 0.00 0.00 0.00 0.00 0.00 0.00 0.00 0.00 0.00 0.00 0.00 0.00 0.00 0.00 0.00 0.00
0.00 0.00 0.00 0.00 0.00 0.00 0.00 0.00 0.00 0.00 0.00 0.00 0.00 0.00 0.00 0.00 0.00 0.00 0.00 0.00 0.00 0.00 0.00 0.00 0.00 0.00 0.00 0.00 0.00 0.00 0.00 0.00 0.00 0.00 0.00 0.00 0.00 0.00 0.00 0.00 0.00 0.00 0.00 0.00
0.00 0.00 0.00 0.00 0.00 0.00 0.00 0.00 0.00 0.00 0.00 0.00 0.00 0.00 0.00 0.00 0.00 0.00 0.00 0.00 0.00 0.00 0.00 0.00 0.00 0.00 0.00 0.00 0.00 0.00 0.00 0.00 0.00 0.00 0.00 0.00 0.00 0.00 0.00 0.00 0.00 0.00 0.00 0.00
0.00 0.00 0.00 0.00 0.00 0.00 0.00 0.00 0.00 0.00 0.00 0.00 0.00 0.00 0.00 0.00 0.00 0.00 0.00 0.00 0.00 0.00 0.00 0.00 0.00 0.00 0.00 0.00 0.00 0.00 0.00 0.00 0.00 0.00 0.00 0.00 0.00 0.00 0.00 0.00 0.00 0.00 0.00 0.00
0.00 0.00 0.00 0.00 0.00 0.00 0.00 0.00 0.00 0.00 0.00 0.00 0.00 0.00 0.00 0.00 0.00 0.00 0.00 0.00 0.00 0.00 0.00 0.00 0.00 0.00 0.00 0.00 0.00 0.00 0.00 0.00 0.00 0.00 0.00 0.00 0.00 0.00 0.00 0.00 0.00 0.00 0.00 0.00
0.00 0.00 0.00 0.00 0.00 0.00 0.00 0.00 0.00 0.00 0.00 0.00 0.00 0.00 0.00 0.00 0.00 0.00 0.00 0.00 0.00 0.00 0.00 0.00 0.00 0.00 0.00 0.00 0.00 0.00 0.00 0.00 0.00 0.00 0.00 0.00 0.00 0.00 0.00 0.00 0.00 0.00 0.00 0.00
0.00 0.00 0.00 0.00 0.00 0.00 0.00 0.00 0.00 0.00 0.00 0.00 0.00 0.00 0.00 0.00 0.00 0.00 0.00 0.00 0.00 0.00 0.00 0.00 0.00 0.00 0.00 0.00 0.00 0.00 0.00 0.00 0.00 0.00 0.00 0.00 0.00 0.00 0.00 0.00 0.00 0.00 0.00 0.00
0.00 0.00 0.00 0.00 0.00 0.00 0.00 0.00 0.00 0.00 0.00 0.00 0.00 0.00 0.00 0.00 0.00 0.00 0.00 0.00 0.00 0.00 0.00 0.00 0.00 0.00 0.00 0.00 0.00 0.00 0.00 0.00 0.00 0.00 0.00 0.00 0.00 0.00 0.00 0.00 0.00 0.00 0.00 0.00
MSLP
1008.46 1009.21 1009.80 1010.22 1010.49 1010.65 1010.72 1010.74 1010.72 1010.66 1010.52 1010.30 1009.97 1009.55 1009.04 1008.50 1008.00 1007.60 1007.34 1007.28 1007.40 1007.69 1008.11 1008.60 1009.10 1009.57 1009.98 1010.32 1010.60 1010.84 1011.06 1011.29 1011.53 1011.77 1012.01 1012.23 1012.40 1012.52 1012.57 1012.58 1012.57 1012.54 1012.52 1012.52
1008.90 1009.54 1010.02 1010.35 1010.55 1010.67 1010.75 1010.80 1010.82 1010.80 1010.68 1010.45 1010.08 1009.59 1009.00 1008.38 1007.81 1007.35 1007.07 1007.00 1007.13 1007.45 1007.90 1008.41 1008.92 1009.39 1009.79 1010.14 1010.43 1010.71 1010.99 1011.30 1011.63 1011.96 1012.27 1012.52 1012.71 1012.81 1012.83 1012.80 1012.75 1012.69 1012.67 1012.69
1009.24 1009.74 1010.10 1010.33 1010.48 1010.58 1010.68 1010.78 1010.86 1010.88 1010.80 1010.57 1010.18 1009.63 1008.97 1008.27 1007.63 1007.12 1006.81 1006.73 1006.87 1007.21 1007.67 1008.19 1008.71 1009.18 1009.60 1009.95 1010.28 1010.60 1010.95 1011.33 1011.74 1012.14 1012.51 1012.81 1013.00 1013.09 1013.09 1013.02 1012.93 1012.85 1012.82 1012.85
1009.41 1009.77 1010.01 1010.16 1010.27 1010.39 1010.54 1010.72 1010.88 1010.97 1010.94 1010.72 1010.31 1009.71 1008.98 1008.21 1007.49 1006.92 1006.56 1006.46 1006.60 1006.94 1007.41 1007.95 1008.48 1008.96 1009.39 1009.77 1010.12 1010.49 1010.89 1011.34 1011.81 1012.27 1012.69 1013.01 1013.22 1013.30 1013.27 1013.18 1013.06 1012.96 1012.93 1012.96
1009.38 1009.60 1009.74 1009.84 1009.96 1010.13 1010.37 1010.66 1010.93 1011.12 1011.15 1010.96 1010.53 1009.89 1009.09 1008.23 1007.43 1006.78 1006.36 1006.21 1006.32 1006.65 1007.13 1007.68 1008.23 1008.73 1009.18 1009.59 1009.97 1010.37 1010.81 1011.29 1011.80 1012.29 1012.73 1013.07 1013.29 1013.37 1013.34 1013.23 1013.10 1013.00 1012.96 1012.99
1009.17 1009.28 1009.35 1009.43 1009.59 1009.86 1010.22 1010.64 1011.05 1011.35 1011.46 1011.31 1010.88 1010.19 1009.32 1008.36 1007.46 1006.71 1006.21 1005.99 1006.06 1006.37 1006.84 1007.40 1007.97 1008.50 1008.98 1009.41 1009.82 1010.24 1010.68 1011.17 1011.68 1012.17 1012.61 1012.95 1013.17 1013.26 1013.23 1013.13 1013.01 1012.92 1012.89 1012.93
1008.85 1008.87 1008.90 1009.02 1009.25 1009.62 1010.12 1010.69 1011.24 1011.65 1011.84 1011.73 1011.30 1010.58 1009.64 1008.59 1007.58 1006.73 1006.13 1005.83 1005.84 1006.11 1006.57 1007.14 1007.73 1008.29 1008.80 1009.25 1009.67 1010.08 1010.51 1010.97 1011.44 1011.91 1012.32 1012.65 1012.86 1012.96 1012.96 1012.89 1012.79 1012.73 1012.71 1012.77
1008.51 1008.48 1008.52 1008.67 1008.99 1009.47 1010.10 1010.81 1011.47 1011.99 1012.25 1012.18 1011.75 1011.00 1010.00 1008.87 1007.77 1006.82 1006.12 1005.74 1005.68 1005.90 1006.34 1006.91 1007.52 1008.10 1008.63 1009.10 1009.52 1009.91 1010.31 1010.71 1011.13 1011.54 1011.90 1012.20 1012.41 1012.52 1012.55 1012.52 1012.47 1012.45 1012.47 1012.55
1008.25 1008.22 1008.27 1008.48 1008.86 1009.44 1010.16 1010.95 1011.69 1012.27 1012.58 1012.53 1012.11 1011.34 1010.31 1009.13 1007.96 1006.93 1006.16 1005.70 1005.57 1005.75 1006.16 1006.72 1007.33 1007.93 1008.48 1008.96 1009.37 1009.74 1010.09 1010.43 1010.78 1011.11 1011.43 1011.69 1011.88 1012.01 1012.07 1012.10 1012.11 1012.13 1012.19 1012.30
1008.17 1008.15 1008.24 1008.47 1008.90 1009.50 1010.25 1011.06 1011.82 1012.41 1012.73 1012.69 1012.28 1011.52 1010.48 1009.29 1008.09 1007.03 1006.20 1005.68 1005.50 1005.63 1006.00 1006.53 1007.15 1007.76 1008.32 1008.80 1009.21 1009.56 1009.86 1010.15 1010.43 1010.70 1010.96 1011.19 1011.37 1011.51 1011.62 1011.69 1011.76 1011.84 1011.95 1012.08
1008.32 1008.32 1008.42 1008.66 1009.07 1009.63 1010.33 1011.08 1011.78 1012.32 1012.61 1012.57 1012.17 1011.44 1010.44 1009.29 1008.11 1007.05 1006.21 1005.66 1005.43 1005.50 1005.83 1006.33 1006.92 1007.53 1008.10 1008.59 1009.00 1009.34 1009.63 1009.88 1010.12 1010.35 1010.56 1010.76 1010.94 1011.10 1011.24 1011.36 1011.48 1011.61 1011.76 1011.92
1008.65 1008.69 1008.79 1008.99 1009.32 1009.78 1010.34 1010.95 1011.52 1011.97 1012.19 1012.13 1011.75 1011.07 1010.16 1009.09 1007.99 1006.98 1006.16 1005.60 1005.33 1005.35 1005.61 1006.06 1006.61 1007.20 1007.76 1008.27 1008.70 1009.05 1009.35 1009.61 1009.83 1010.05 1010.25 1010.44 1010.62 1010.80 1010.96 1011.12 1011.28 1011.45 1011.62 1011.81
1009.11 1009.17 1009.24 1009.37 1009.58 1009.88 1010.25 1010.67 1011.06 1011.36 1011.50 1011.40 1011.06 1010.46 1009.66 1008.71 1007.73 1006.81 1006.04 1005.48 1005.18 1005.13 1005.32 1005.69 1006.17 1006.72 1007.27 1007.78 1008.24 1008.64 1008.98 1009.28 1009.54 1009.77 1009.99 1010.20 1010.39 1010.58 1010.76 1010.94 1011.13 1011.32 1011.51 1011.71
1009.58 1009.65 1009.68 1009.72 1009.78 1009.89 1010.05 1010.24 1010.44 1010.58 1010.61 1010.49 1010.19 1009.69 1009.02 1008.23 1007.39 1006.58 1005.87 1005.33 1004.98 1004.86 1004.95 1005.21 1005.60 1006.08 1006.60 1007.12 1007.61 1008.07 1008.48 1008.85 1009.17 1009.47 1009.73 1009.97 1010.19 1010.39 1010.59 1010.78 1010.97 1011.16 1011.36 1011.57
1009.96 1010.02 1010.02 1009.96 1009.88 1009.80 1009.75 1009.73 1009.73 1009.72 1009.66 1009.52 1009.26 1008.87 1008.35 1007.73 1007.04 1006.34 1005.70 1005.16 1004.78 1004.56 1004.52 1004.65 1004.93 1005.31 1005.78 1006.29 1006.81 1007.33 1007.82 1008.28 1008.70 1009.08 1009.41 1009.70 1009.95 1010.17 1010.37 1010.56 1010.74 1010.92 1011.11 1011.31
1010.17 1010.23 1010.18 1010.05 1009.84 1009.62 1009.39 1009.19 1009.03 1008.90 1008.77 1008.62 1008.42 1008.14 1007.77 1007.30 1006.75 1006.17 1005.59 1005.05 1004.60 1004.27 1004.09 1004.07 1004.20 1004.47 1004.86 1005.34 1005.88 1006.45 1007.02 1007.58 1008.09 1008.56 1008.97 1009.32 1009.61 1009.85 1010.06 1010.24 1010.40 1010.57 1010.74 1010.92
1010.20 1010.25 1010.17 1009.98 1009.70 1009.37 1009.02 1008.70 1008.43 1008.21 1008.05 1007.91 1007.77 1007.59 1007.35 1007.02 1006.60 1006.11 1005.57 1005.03 1004.51 1004.07 1003.74 1003.56 1003.53 1003.66 1003.95 1004.37 1004.89 1005.49 1006.12 1006.76 1007.36 1007.92 1008.41 1008.82 1009.15 1009.42 1009.63 1009.80 1009.95 1010.10 1010.25 1010.41
1010.08 1010.11 1010.02 1009.81 1009.49 1009.11 1008.70 1008.32 1007.99 1007.74 1007.56 1007.45 1007.37 1007.28 1007.14 1006.93 1006.62 1006.20 1005.70 1005.13 1004.56 1004.01 1003.54 1003.19 1003.00 1002.99 1003.15 1003.49 1003.96 1004.55 1005.20 1005.89 1006.56 1007.19 1007.74 1008.21 1008.59 1008.88 1009.11 1009.29 1009.43 1009.56 1009.70 1009.84
1009.91 1009.90 1009.79 1009.57 1009.25 1008.86 1008.45 1008.06 1007.72 1007.47 1007.32 1007.24 1007.21 1007.19 1007.14 1007.01 1006.78 1006.42 1005.95 1005.38 1004.75 1004.12 1003.53 1003.04 1002.70 1002.54 1002.57 1002.79 1003.18 1003.72 1004.36 1005.05 1005.75 1006.41 1007.01 1007.53 1007.96 1008.29 1008.55 1008.74 1008.90 1009.03 1009.16 1009.30
1009.76 1009.70 1009.56 1009.33 1009.02 1008.65 1008.27 1007.91 1007.60 1007.38 1007.25 1007.21 1007.23 1007.26 1007.27 1007.21 1007.04 1006.73 1006.29 1005.73 1005.08 1004.38 1003.71 1003.11 1002.64 1002.34 1002.24 1002.34 1002.62 1003.07 1003.65 1004.30 1004.99 1005.66 1006.28 1006.84 1007.31 1007.69 1008.00 1008.23 1008.42 1008.58 1008.73 1008.87
1009.69 1009.54 1009.35 1009.11 1008.81 1008.48 1008.14 1007.82 1007.57 1007.39 1007.30 1007.29 1007.34 1007.41 1007.46 1007.45 1007.32 1007.06 1006.66 1006.13 1005.48 1004.77 1004.05 1003.38 1002.82 1002.40 1002.17 1002.13 1002.29 1002.62 1003.10 1003.67 1004.31 1004.96 1005.58 1006.16 1006.68 1007.12 1007.49 1007.79 1008.04 1008.26 1008.44 1008.60
1009.71 1009.45 1009.19 1008.91 1008.61 1008.30 1008.01 1007.75 1007.55 1007.42 1007.37 1007.39 1007.46 1007.56 1007.63 1007.65 1007.57 1007.36 1007.00 1006.51 1005.90 1005.21 1004.49 1003.78 1003.15 1002.65 1002.30 1002.13 1002.15 1002.34 1002.69 1003.16 1003.71 1004.31 1004.93 1005.52 1006.08 1006.58 1007.03 1007.42 1007.76 1008.05 1008.29 1008.50
1009.76 1009.38 1009.02 1008.69 1008.38 1008.10 1007.85 1007.64 1007.50 1007.42 1007.40 1007.45 1007.54 1007.65 1007.74 1007.78 1007.73 1007.56 1007.26 1006.83 1006.28 1005.64 1004.94 1004.23 1003.57 1002.99 1002.54 1002.25 1002.13 1002.17 1002.38 1002.73 1003.18 1003.71 1004.29 1004.89 1005.49 1006.06 1006.59 1007.08 1007.52 1007.91 1008.24 1008.51
1009.77 1009.26 1008.81 1008.42 1008.10 1007.83 1007.63 1007.48 1007.39 1007.36 1007.39 1007.46 1007.56 1007.67 1007.77 1007.82 1007.79 1007.67 1007.42 1007.05 1006.57 1005.98 1005.33 1004.64 1003.96 1003.34 1002.81 1002.41 1002.15 1002.05 1002.11 1002.33 1002.67 1003.12 1003.66 1004.25 1004.87 1005.51 1006.13 1006.72 1007.27 1007.77 1008.19 1008.55
1009.63 1009.01 1008.49 1008.06 1007.74 1007.51 1007.35 1007.27 1007.25 1007.27 1007.34 1007.43 1007.54 1007.65 1007.75 1007.80 1007.78 1007.68 1007.48 1007.17 1006.74 1006.21 1005.60 1004.94 1004.26 1003.61 1003.02 1002.52 1002.14 1001.91 1001.83 1001.92 1002.15 1002.52 1003.00 1003.58 1004.22 1004.90 1005.60 1006.28 1006.94 1007.53 1008.06 1008.51
1009.27 1008.59 1008.04 1007.61 1007.32 1007.14 1007.06 1007.05 1007.10 1007.19 1007.29 1007.41 1007.53 1007.64 1007.72 1007.76 1007.74 1007.64 1007.46 1007.19 1006.80 1006.32 1005.75 1005.12 1004.44 1003.77 1003.12 1002.55 1002.07 1001.72 1001.53 1001.49 1001.62 1001.90 1002.33 1002.87 1003.52 1004.23 1004.97 1005.73 1006.46 1007.15 1007.77 1008.31
Thickness
5739 5731 5728 5737 5743 5740 5739 5742 5744 5755 5770 5765 5763 5767 5777 5784 5783 5780 5779 5778 5776 5774 5778 5776 5770 5765 5760 5755 5752 5749 5744 5740 5734 5729 5724 5719 5715 5712 5708 5704 5699 5695 5692 5689
5729 5729 5746 5754 5755 5747 5740 5742 5747 5754 5768 5765 5765 5769 5782 5788 5785 5785 5783 5781 5778 5776 5774 5770 5767 5764 5759 5753 5750 5750 5745 5739 5733 5727 5724 5720 5715 5711 5707 5704 5699 5695 5691 5687
5729 5743 5756 5751 5747 5744 5747 5744 5744 5743 5757 5770 5765 5762 5776 5789 5792 5789 5787 5786 5785 5780 5774 5769 5766 5762 5758 5752 5750 5748 5743 5738 5733 5728 5723 5718 5714 5709 5705 5701 5697 5694 5691 5687
5734 5750 5754 5751 5749 5749 5737 5752 5753 5752 5748 5749 5760 5741 5766 5781 5779 5781 5781 5781 5781 5781 5777 5771 5767 5761 5757 5754 5752 5749 5744 5739 5733 5727 5721 5715 5709 5704 5702 5700 5698 5695 5692 5689
5726 5742 5748 5748 5753 5758 5748 5761 5760 5759 5754 5751 5760 5751 5761 5775 5768 5773 5778 5780 5780 5780 5777 5772 5767 5762 5759 5756 5751 5747 5743 5737 5731 5727 5720 5715 5710 5706 5705 5702 5698 5695 5693 5690
5744 5758 5762 5760 5766 5767 5765 5762 5762 5762 5754 5736 5756 5749 5750 5766 5767 5773 5778 5780 5780 5780 5778 5773 5768 5763 5758 5754 5749 5745 5740 5735 5731 5726 5721 5716 5711 5707 5704 5701 5698 5695 5693 5691
5742 5755 5766 5770 5758 5762 5760 5745 5730 5727 5725 5732 5762 5755 5755 5773 5780 5777 5777 5779 5780 5779 5775 5769 5763 5758 5754 5750 5747 5743 5738 5733 5730 5726 5722 5719 5714 5710 5706 5702 5699 5695 5693 5690
5738 5739 5759 5765 5759 5755 5757 5751 5724 5706 5710 5732 5755 5752 5763 5780 5782 5782 5780 5779 5779 5776 5773 5768 5763 5758 5754 5750 5746 5742 5738 5733 5730 5726 5723 5721 5717 5712 5709 5705 5701 5698 5695 5692
5743 5743 5768 5771 5773 5766 5754 5752 5759 5740 5736 5732 5749 5763 5772 5777 5775 5775 5775 5774 5773 5772 5770 5767 5764 5759 5754 5750 5746 5743 5738 5734 5731 5728 5725 5722 5719 5715 5711 5707 5704 5701 5698 5696
5760 5744 5758 5766 5767 5766 5762 5757 5748 5734 5717 5711 5730 5745 5745 5755 5761 5766 5768 5767 5770 5771 5769 5767 5764 5760 5756 5752 5748 5744 5741 5736 5733 5729 5726 5723 5720 5717 5712 5708 5704 5702 5699 5696
5766 5750 5749 5754 5749 5751 5752 5749 5746 5739 5735 5716 5710 5730 5764 5761 5762 5762 5764 5769 5770 5769 5768 5766 5763 5761 5758 5753 5748 5744 5741 5738 5734 5731 5727 5724 5721 5717 5714 5709 5706 5703 5700 5698
5765 5753 5741 5750 5767 5770 5760 5752 5746 5725 5723 5727 5716 5730 5773 5769 5767 5766 5765 5769 5771 5771 5768 5765 5763 5760 5756 5752 5748 5745 5742 5739 5736 5733 5729 5725 5722 5719 5715 5711 5708 5705 5702 5700
5756 5747 5729 5727 5737 5751 5749 5752 5749 5741 5729 5721 5712 5729 5771 5770 5767 5767 5766 5768 5769 5769 5767 5764 5760 5757 5754 5751 5749 5745 5743 5740 5737 5733 5730 5726 5723 5720 5716 5713 5710 5707 5704 5701
5755 5744 5733 5719 5728 5741 5741 5745 5747 5737 5720 5718 5724 5734 5753 5758 5759 5763 5766 5768 5769 5768 5765 5762 5757 5755 5754 5752 5750 5747 5744 5742 5738 5733 5729 5726 5724 5721 5718 5716 5712 5708 5705 5701
5755 5740 5744 5748 5754 5752 5748 5746 5746 5739 5735 5725 5731 5736 5745 5753 5756 5761 5765 5767 5767 5766 5765 5761 5757 5755 5753 5751 5749 5748 5744 5742 5739 5733 5729 5726 5725 5723 5719 5716 5712 5709 5706 5703
5752 5739 5739 5738 5749 5750 5746 5749 5748 5745 5744 5740 5739 5738 5753 5758 5759 5758 5760 5761 5760 5762 5763 5763 5761 5758 5754 5751 5749 5748 5745 5742 5739 5734 5730 5728 5726 5723 5719 5716 5713 5709 5705 5703
5740 5734 5725 5723 5738 5738 5731 5748 5748 5746 5746 5740 5730 5735 5749 5747 5748 5748 5751 5753 5755 5759 5762 5762 5762 5760 5758 5756 5752 5748 5746 5743 5738 5734 5731 5729 5725 5722 5719 5717 5713 5708 5705 5702
5735 5729 5722 5718 5720 5705 5740 5764 5757 5745 5742 5743 5740 5741 5744 5745 5748 5749 5750 5748 5750 5755 5759 5762 5763 5762 5762 5761 5756 5752 5748 5743 5738 5734 5732 5729 5725 5721 5719 5715 5712 5708 5706 5702
5746 5729 5716 5711 5705 5716 5740 5752 5752 5739 5730 5739 5736 5736 5739 5744 5745 5740 5746 5747 5748 5752 5756 5760 5764 5764 5763 5761 5758 5753 5748 5743 5738 5734 5732 5729 5725 5721 5717 5713 5711 5709 5706 5703
5743 5734 5716 5708 5697 5697 5723 5744 5753 5740 5715 5729 5730 5726 5727 5729 5715 5719 5735 5741 5744 5748 5752 5756 5760 5761 5760 5759 5757 5751 5746 5742 5738 5735 5732 5730 5726 5721 5716 5713 5711 5709 5706 5703
5719 5716 5708 5702 5697 5710 5726 5738 5739 5707 5700 5718 5720 5716 5715 5711 5711 5719 5728 5731 5735 5740 5745 5749 5752 5752 5753 5755 5753 5746 5743 5741 5739 5736 5732 5728 5725 5721 5717 5713 5710 5708 5705 5702
5712 5706 5705 5703 5693 5696 5719 5721 5707 5702 5711 5710 5707 5706 5704 5705 5709 5713 5716 5719 5724 5729 5734 5739 5740 5742 5746 5749 5745 5741 5739 5740 5738 5733 5728 5724 5721 5719 5716 5710 5707 5705 5701 5697
5712 5709 5704 5702 5699 5708 5711 5705 5704 5704 5699 5697 5695 5695 5695 5694 5696 5700 5703 5707 5712 5717 5722 5726 5729 5731 5736 5740 5739 5734 5734 5735 5732 5727 5722 5719 5716 5713 5711 5706 5702 5699 5696 5693
5703 5708 5698 5694 5700 5703 5700 5698 5696 5693 5688 5686 5685 5684 5683 5682 5685 5687 5690 5694 5698 5704 5708 5713 5717 5719 5724 5729 5731 5730 5730 5729 5726 5720 5716 5713 5710 5706 5704 5701 5698 5694 5691 5689
5682 5682 5677 5676 5683 5685 5685 5682 5680 5678 5677 5674 5673 5671 5670 5669 5671 5673 5676 5679 5683 5689 5695 5699 5703 5706 5712 5718 5721 5723 5723 5722 5718 5714 5711 5707 5704 5701 5697 5692 5688 5687 5683 5683
5673 5668 5662 5662 5669 5665 5665 5667 5665 5660 5659 5657 5656 5655 5656 5657 5657 5659 5661 5665 5669 5673 5679 5684 5689 5694 5700 5706 5711 5715 5716 5715 5711 5707 5704 5701 5698 5694 5690 5682 5674 5672 5673 5673